#timestamp,LO_Frequency,Hit,StdDev 
1624474815.5,286047002.3,N
1624474835.3,286047002.4,N
1624474855.2,286047002.5,N
1624474875.0,286047002.3,N
1624474875.9,286047002.3,N
1624474895.8,286047002.3,N
1624474915.6,286047002.7,N
1624474935.5,286047003.7,Y
1624474955.3,286047002.2,P
1624474975.1,286046999.8,N
1624474995.9,286047001.0,N
1624475015.7,286047000.6,N
1624475035.5,286047000.4,N
1624475055.4,286047000.6,N
1624475075.2,286047000.5,N
1624475095.1,286047000.2,N
1624475096.0,286047000.2,N
1624475115.8,286047001.0,N
1624475135.6,286046998.5,N
1624475155.5,286046998.2,N
1624475175.3,286046998.1,N
1624475195.2,286046999.7,N
1624475215.9,286047002.5,N
1624475235.7,286047002.0,N
1624475255.6,286047001.7,N
1624475275.4,286047002.6,N
1624475295.3,286047002.4,N
1624475315.1,286047000.1,N
1624475316.0,286047000.1,N
1624475335.8,286047000.9,N
1624475355.7,286047002.4,N
1624475375.5,286047002.0,N
1624475395.3,286047002.6,N
1624475415.2,286047002.3,N
1624475435.0,286047000.1,N
1624475435.9,286047000.1,N
1624475455.8,286047002.4,N
1624475475.6,286047002.7,N
1624475495.4,286047000.0,N
1624475515.3,286047002.6,N
1624475535.1,286047002.6,N
1624475555.9,286047002.6,N
1624475575.7,286047002.0,N
1624475595.5,286047002.6,N
1624475615.4,286047002.0,N
1624475635.2,286047002.5,N
1624475655.0,286047000.1,N
1624475656.0,286047000.1,N
1624475675.8,286047002.7,N
1624475695.6,286047001.5,N
1624475715.5,286047002.6,N
1624475735.3,286047002.6,N
1624475755.1,286047002.5,N
1624475775.9,286047001.9,N
1624475795.7,286047004.2,Y
1624475815.6,286047000.2,P
1624475835.4,286047002.1,N
1624475855.2,286047002.8,P
1624475875.1,286046999.8,N
1624475876.0,286046999.8,N
1624475895.8,286047002.6,N
1624475915.6,286046999.8,N
1624475935.5,286047002.6,N
1624475955.3,286047002.7,N
1624475975.2,286047000.2,N
1624475995.9,286047001.7,N
1624476015.7,286047004.0,Y
1624476035.6,286047002.6,P
1624476055.4,286046999.9,N
1624476075.2,286046998.5,N
1624476095.1,286046999.8,N
1624476096.0,286046999.8,N
1624476115.8,286047001.7,N
1624476135.7,286047001.4,N
1624476155.5,286047001.9,N
1624476175.3,286047004.4,Y
1624476195.2,286047004.4,P
1624476215.0,286047004.0,N
1624476215.9,286047004.0,N
1624476235.7,286047004.2,N
1624476255.6,286047004.1,N
1624476275.4,286047005.8,Y
1624476295.3,286046999.7,P
1624476315.1,286047000.1,N
1624476316.0,286047000.1,N
1624476335.8,286047002.4,N
1624476355.7,286047002.2,N
1624476375.5,286047002.4,N
1624476395.4,286047000.3,N
1624476415.2,286047002.8,N
1624476435.0,286047000.3,N
1624476435.9,286047000.3,N
1624476455.8,286047000.6,N
1624476475.6,286047000.8,N
1624476495.4,286047000.7,N
1624476515.3,286047001.0,N
1624476535.1,286047000.3,N
1624476555.9,286047000.3,N
1624476575.7,286047000.7,N
1624476595.5,286046998.3,N
1624476615.4,286047000.7,N
1624476635.2,286046998.7,N
1624476655.1,286046998.6,N
1624476656.0,286046998.6,N
1624476675.8,286047001.2,N
1624476695.6,286047000.8,N
1624476715.5,286046998.4,N
1624476735.3,286047001.1,N
1624476755.1,286047000.8,N
1624476775.9,286046999.3,N
1624476795.7,286046996.7,N
1624476815.6,286046997.0,N
1624476835.4,286046997.4,N
1624476855.2,286046997.4,N
1624476875.1,286046997.2,N
1624476876.0,286046997.2,N
1624476895.8,286046995.1,N
1624476915.6,286046995.1,N
1624476935.5,286046996.3,N
1624476955.3,286046994.1,Y
1624476975.2,286046995.8,P
1624476995.9,286046995.8,N
1624477015.7,286046994.1,P
1624477035.6,286046994.4,Y
1624477055.4,286046998.0,P
1624477075.2,286046995.3,P
1624477095.1,286046997.6,N
1624477096.0,286046997.6,N
1624477115.8,286046995.6,Y
1624477135.7,286046998.6,P
1624477155.5,286047000.8,N
1624477175.3,286046999.1,N
1624477195.2,286046998.1,N
1624477215.0,286046998.2,N
1624477215.9,286046998.2,N
1624477235.8,286046998.1,N
1624477255.6,286047000.8,N
1624477275.4,286047001.0,N
1624477295.3,286046998.2,N
1624477315.1,286047001.2,N
1624477335.8,286046998.1,N
1624477355.7,286047001.2,N
1624477375.5,286047001.0,N
1624477395.4,286047000.2,N
1624477415.2,286047002.7,N
1624477435.0,286047000.6,N
1624477435.9,286047000.6,N
1624477455.8,286046999.9,N
1624477475.6,286047002.3,N
1624477495.4,286047002.1,N
1624477515.3,286047002.4,N
1624477535.1,286047002.1,N
1624477555.9,286047000.1,N
1624477575.7,286046999.7,N
1624477595.5,286047001.6,N
1624477615.4,286047001.6,N
1624477635.2,286047003.7,N
1624477655.0,286047002.0,N
1624477655.9,286047002.0,N
1624477675.8,286047003.7,N
1624477695.6,286047003.9,N
1624477715.5,286047001.4,N
1624477735.3,286047003.1,N
1624477755.1,286047003.3,N
1624477775.9,286047004.6,N
1624477795.7,286047005.0,Y
1624477815.6,286047003.3,P
1624477835.4,286047003.6,P
1624477855.2,286047003.8,P
1624477875.1,286047003.4,Y
1624477876.0,286047003.4,P
1624477895.8,286047000.1,N
1624477915.7,286047002.5,N
1624477935.5,286046999.8,N
1624477955.3,286047000.0,N
1624477975.2,286047000.5,N
1624477995.0,286047000.6,N
1624477995.9,286047000.6,N
1624478015.8,286047000.0,N
1624478035.6,286047002.3,N
1624478055.4,286047002.7,N
1624478075.3,286047002.6,N
1624478095.1,286047002.8,N
1624478115.8,286046999.9,N
1624478135.7,286047002.4,N
1624478155.5,286047000.0,N
1624478175.3,286047002.7,N
1624478195.2,286047002.8,N
1624478215.0,286047002.8,N
1624478215.9,286047002.8,N
1624478235.8,286047002.7,N
1624478255.6,286047000.1,N
1624478275.4,286047000.1,N
1624478295.3,286047002.8,N
1624478315.1,286047000.2,N
1624478335.9,286046999.9,N
1624478355.7,286046999.9,N
1624478375.5,286047002.6,N
1624478395.4,286047002.4,N
